Flag for Colombia Weather past 2 weeks in Cali, Colombia

Now
66 °F

Passing clouds.


Feels Like: 66 °F
Forecast: 69 / 84 °F
Wind: 5 mph from Northeast

Location: Cali / Alfonso Bonillaaragon

Current Time: Mar 27, 2015 at 4:00:06 AM

Latest Report: Mar 27, 2015 at 3:00 AM


Visibility: N/A

Pressure: 29.99 "Hg

Humidity: 94%

Dew point: 64 °F

Location of CaliLocation

Historic Weather in Cali — Graph

°F

Cali temperature yesterday

Maximum temperature yesterday: 84 °F (at 12:00 PM)
Minimum temperature yesterday: 68 °F (at 5:00 AM)
Average temperature yesterday: 74 °F

Past Weeks' High & Low Weather Summary

 TemperatureHumidityPressure
High91 °F (Mar 12, 3:00 PM)100% (Mar 14, 3:00 AM)30.37 "Hg (Mar 14, 3:00 AM)
Low59 °F (Mar 21, 9:00 PM)41% (Mar 22, 2:00 PM)29.74 "Hg (Mar 13, 4:00 PM)
Average74 °F77%29.98 "Hg
* Reported Mar 12 2:00 AM — Mar 27 2:00 AM, Cali, Weather by CustomWeather, © 2015

Note: Actual official high and low records may vary slightly from our data, if they occured in-between our weather recording intervals... More about our weather records

Advertising

Cali weather history for previous 24 hours

 ConditionsComfort  
Time TempWeatherWind HumidityBarometerVisibility
2:00 AM
Fri, Mar 27
66 °FPassing clouds.3 mph94%30.00 "HgN/A
1:00 AM64 °FPassing clouds.3 mph100%30.01 "HgN/A
12:00 AM68 °FPassing clouds.5 mph88%30.03 "HgN/A
11:00 PM
Thu, Mar 26
68 °FPassing clouds.3 mph88%30.03 "HgN/A
10:00 PM68 °FPassing clouds.5 mph94%30.02 "HgN/A
9:00 PM70 °FPassing clouds.5 mph88%29.99 "HgN/A
8:00 PM72 °FPassing clouds.7 mph83%29.97 "HgN/A
7:00 PM73 °FPassing clouds.6 mph78%29.94 "HgN/A
6:00 PM77 °FPartly sunny.9 mph69%29.89 "Hg6 mi
5:00 PM79 °FBroken clouds.9 mph65%29.89 "Hg6 mi
4:00 PM84 °FScattered showers. Broken clouds.14 mph55%29.89 "Hg6 mi
3:00 PM82 °FScattered showers. Broken clouds.N/A58%29.90 "Hg6 mi
2:00 PM84 °FBroken clouds.3 mph55%29.94 "Hg6 mi
1:00 PM84 °FBroken clouds.5 mph55%29.98 "Hg6 mi
12:00 PM84 °FScattered clouds.7 mph55%30.02 "HgN/A
11:00 AM79 °FScattered clouds.5 mph70%30.05 "HgN/A
10:00 AM79 °FScattered clouds.3 mph70%30.07 "Hg6 mi
9:00 AM75 °FScattered clouds.3 mph78%30.06 "Hg6 mi
8:00 AM72 °FScattered clouds.2 mph88%30.07 "Hg6 mi
7:00 AM68 °FScattered showers. More clouds than sun.5 mph94%30.07 "Hg4 mi
6:00 AM68 °FScattered showers. Partly cloudy.5 mph94%30.04 "Hg5 mi
5:00 AM68 °FPartly cloudy.3 mph88%30.03 "Hg6 mi
4:00 AM70 °FScattered showers. Partly cloudy.6 mph94%30.02 "HgN/A
Weather by CustomWeather, © 2015

See weather overviewHow to use our weather pages